SL-14 DEB, 45297

Orbit data source: Space-Track

SL-14 DEB, 45297 is space debris in LEO originally from a launch on Thu, 15 Aug 1991 UTC launched from the Plesetsk Missile And Space Complex (PKMTR). Debris objects in space refer to the collection of defunct objects orbiting the Earth. Examples of debris include non-operational satellites, rocket bodies, and fragments generated from explosions, collisions, or faulty payload assembly.

Loading next visibility...
Identifier
45297, 1991-056AK
Orbit
LEO
Last TLE update
12 hours ago
Origin
Manufacturer
Unknown
Mission
Spacecraft
Bus & Motor
Unknown
Mass
Unknown
Launch date (UTC)
1991-08-15 (34 years ago)
Launch vehicle
Unknown
Launch site
Plesetsk Missile And Space Complex (PKMTR)
Object type
Payload
Rocket body
Debris
Shape & HBR
Unknown
Radar Cross Section
Small (<0.1 m²)

Expand to show TLE details & history

TLE from 12 hours ago
0 SL-14 DEB
1 45297U 91056AK  25181.91979600  .00005216  00000-0  13351-1 0  9994
2 45297  82.5917  61.3700 0041922 160.9604 199.3097 13.17562609256407
Epoch: 2025-06-30T22:04Z
TLE epoch observation values (Epoch: 2025-06-30T22:04:30.374Z)
Latitude
-0.00007°
Longitude
171.02074°
Altitude
1,226.832 km
Speed
7.227 km/s
True Right ascension
04h 05m 28s
True Declination
0° 00' 00"
Sunlit
Object was in daylight at epoch
Visualization orbit readout
Latitude
-74.819°
Longitude
142.18251°
Altitude
1,238.799 km
Speed
7.227 km/s
Apparent Right ascension
08h 28m 54s
Apparent Declination
-69° 17' 04"
Sunlit
Object is in daylight
Visualization observer readout
Local Sidereal Time
22:04:56
Azimuth
164.242° S
Elevation
-57.996°
Doppler factor
1
Orbital elements
Apogee altitude
1,223.019 km
Perigee altitude
1,159.554 km
Semi-major axis
7,569.423 km
Eccentricity
0.00419
Inclination
82.5917°
RAAN
61.37°
Arg. of periapsis
160.9604°
True anomaly
Unknown
Mean anomaly
199.3097°
Eccentric anomaly
Unknown
Mean motion
3.29571 °/min
Orbital period
109.23 mins
BSTAR
0.013351
Loading maneuver chart data...
Loading SW <> Apogee altitude chart data...
Loading historical data...
Loading historical data...
Loading historical data...
Loading historical data...
Loading historical data...
Loading historical data...
Loading historical data...

SL-14 DEB Visibility forecast

Observer location: undefined°, undefined°

Span
Click to sort rows by Start time (UTC) header in descending order
Start Az.
Max El. time (UTC)
Max El. Az.
Max El.
End time (UTC)
End Az.
13 mins2025-07-01 16:23:29.363Z173.704° S2025-07-01 16:30:29.363Z78.885° E42.831°2025-07-01 16:36:29.363Z13.848° NNE
8 mins2025-07-01 18:17:29.363Z257.265° W2025-07-01 18:20:29.363Z286.466° WNW20.152°2025-07-01 18:25:29.363Z334.367° NNW
6 mins2025-07-02 02:02:29.363Z38.416° NE2025-07-02 02:05:29.363Z65.651° ENE14.798°2025-07-02 02:08:29.363Z92.43° ESE
13 mins2025-07-02 03:50:29.363Z352.252° N2025-07-02 03:56:29.363Z278.281° WNW44.996°2025-07-02 04:03:29.363Z175.046° S
5 mins2025-07-02 05:43:29.363Z299.911° NW2025-07-02 05:45:29.363Z282.224° WNW13.258°2025-07-02 05:48:29.363Z256.399° W
|